RH
55 40 30 35 75 46 30 33 30 38 29 22 23 26 31 36 43 72 25 25 30 33 42 56 79 76 75 76 78 75 72 74 74 74 72 71 71 71 70 69 69 72 71 72 70 71 71 69 75
27 34 35 34 76 52 33 27 28 27 25 24 24 30 39 42 36 50 27 27 29 30 38 44 83 79 77 76 76 76 71 74 75 73 71 71 70 69 68 67 67 67 69 68 68 69 70 70 70
33 32 33 44 31 34 33 27 28 25 24 24 29 25 30 37 36 30 25 26 26 30 34 48 82 79 76 75 75 75 72 74 73 72 70 70 69 67 66 64 66 67 68 69 68 68 68 70 70
26 27 34 43 34 24 26 24 25 26 25 24 24 33 36 33 32 28 26 25 25 28 29 68 78 76 74 74 74 74 73 72 71 70 70 69 66 66 65 63 66 68 69 68 66 67 67 68 71
22 24 44 26 24 21 20 21 23 29 29 27 25 32 40 39 31 28 27 24 25 28 44 49 79 76 74 73 72 71 71 71 71 70 68 66 65 66 66 65 66 68 70 67 66 64 65 64 65
23 25 31 27 23 19 18 20 21 22 24 26 29 37 46 34 32 28 25 24 25 28 36 51 73 74 74 74 73 73 72 71 71 69 68 66 65 67 67 66 70 68 66 66 66 64 63 63 63
19 32 25 23 25 22 20 19 20 22 23 25 24 41 44 34 30 26 25 25 25 26 34 45 47 62 72 72 72 72 71 71 70 69 68 67 66 66 66 65 67 67 72 65 64 64 63 63 63
15 17 22 18 18 21 19 20 22 20 26 22 22 50 48 34 30 26 25 26 27 31 38 36 40 44 50 52 71 70 70 68 69 69 68 69 70 69 67 70 68 68 68 65 66 66 66 66 66
15 20 19 17 16 17 16 20 23 22 22 23 24 25 32 31 28 28 29 32 48 38 35 37 36 48 57 51 57 72 74 72 72 69 72 68 48 62 56 73 73 72 71 74 69 66 68 67 68
15 16 16 13 12 14 16 18 21 23 25 31 33 30 32 31 30 30 30 37 44 46 38 50 52 44 49 45 67 58 50 46 47 50 66 52 76 64 64 71 62 66 68 78 74 67 66 67 51
13 16 12 11 11 12 14 16 17 21 21 21 32 36 36 36 33 31 29 30 32 36 33 40 64 53 47 62 45 43 46 43 40 54 57 66 58 42 40 86 77 86 76 54 81 83 62 59 77
13 10 10 10 9 10 14 18 15 21 23 19 25 32 38 40 31 32 29 30 34 44 35 36 34 40 62 62 43 60 60 42 31 40 55 69 42 34 88 94 88 66 52 86 73 56 56 57 54
11 10 10 9 9 10 14 17 18 20 22 20 25 32 38 34 29 28 28 28 32 39 41 38 44 49 67 49 67 64 62 33 30 36 41 41 34 54 64 85 92 67 93 89 76 58 68 68 66
10 10 10 10 10 12 13 16 18 18 22 23 26 30 31 29 27 28 27 28 30 34 40 35 48 46 46 46 55 66 65 61 32 33 37 47 36 56 67 65 96 86 83 58 84 77 63 76 62
9 10 9 11 13 12 14 20 22 20 21 24 25 26 28 27 26 29 27 28 29 29 32 38 38 40 48 49 48 42 62 48 34 34 43 50 46 46 57 62 49 71 88 75 69 72 60 67 62
9 8 11 10 9 10 13 21 15 20 22 24 24 25 27 27 25 28 27 26 29 31 35 35 36 36 43 44 46 39 36 54 42 33 38 50 50 49 54 41 61 69 48 61 73 55 79 51 69
8 10 10 10 8 8 10 18 17 11 19 21 25 25 26 28 27 28 27 28 28 32 40 39 43 40 42 48 43 42 41 39 38 33 33 53 50 47 53 39 60 44 52 53 41 49 68 58 61
10 9 9 10 8 10 13 22 22 17 16 19 23 24 26 26 27 28 27 27 28 34 48 41 41 48 48 47 50 44 52 38 36 35 34 46 44 62 50 43 43 45 38 71 75 58 52 47 42
10 8 9 8 8 10 20 25 28 21 19 20 21 22 23 24 24 26 28 27 28 34 52 51 47 62 52 57 55 45 67 51 42 36 41 44 47 46 52 43 43 47 46 49 55 54 67 51 40
8 8 9 8 8 8 20 27 28 28 26 24 24 21 20 20 22 26 29 28 28 33 43 61 56 60 62 55 56 43 44 70 51 69 66 47 54 49 48 56 45 43 38 50 55 60 55 49 47
8 8 9 9 8 7 10 27 27 27 28 28 26 23 21 21 21 24 28 29 35 34 40 49 60 63 65 62 51 52 49 50 67 53 49 55 55 49 52 53 54 58 47 38 56 56 58 44 55
8 7 7 8 10 12 8 39 30 27 30 32 30 27 22 21 20 21 24 28 29 32 36 44 53 59 62 68 59 68 52 54 46 48 44 63 52 52 49 55 57 60 50 59 48 42 54 55 52
7 7 8 8 9 9 8 31 29 27 32 32 33 32 27 23 21 18 19 24 26 30 33 38 52 63 62 66 67 57 65 51 54 43 68 70 67 54 56 65 56 61 52 61 56 60 62 51 49
6 7 8 8 8 10 10 16 62 31 34 31 31 35 34 30 25 24 21 20 25 28 32 35 50 64 64 62 65 72 71 69 65 60 47 52 44 43 56 55 65 67 71 59 52 58 61 62 67
7 8 12 13 9 14 12 36 79 29 30 29 30 33 34 34 33 28 25 24 25 28 32 36 44 58 60 62 62 66 66 72 75 83 64 57 46 42 60 79 70 63 72 63 70 70 78 65 58
9 8 10 17 13 14 12 25 31 26 26 26 27 28 33 36 36 38 38 36 35 32 33 38 42 53 56 61 68 69 68 57 56 57 62 52 49 50 58 72 68 63 60 63 64 57 65 70 67
10 10 7 7 8 10 34 31 26 26 26 27 28 29 31 34 41 41 41 40 40 38 38 40 44 48 52 50 67 70 68 67 58 64 70 52 59 56 66 62 70 64 62 63 69 57 62 68 82
9 9 14 35 30 19 22 28 26 32 31 30 31 31 31 31 32 36 41 44 46 51 57 49 47 48 50 48 48 53 61 66 61 65 69 69 64 72 62 66 59 60 63 65 72 68 72 78 67
16 11 19 14 17 26 28 65 32 34 30 29 29 30 30 32 32 34 36 39 44 48 54 62 74 78 80 84 82 68 51 50 56 57 67 72 59 62 66 72 69 68 67 69 79 78 73 77 74
9 13 24 15 45 63 26 45 27 28 26 26 30 29 29 30 30 30 34 40 40 47 51 54 57 57 74 80 79 74 86 80 68 76 73 73 76 75 75 68 74 72 71 72 78 74 65 72 72
Wind_Speed
10 13 5 5 3 4 12 10 10 14 6 11 7 10 9 14 8 5 19 16 20 21 19 15 12 12 12 11 12 13 13 12 11 10 9 8 7 7 6 7 7 7 8 9 8 8 11 10 12
11 3 7 5 3 2 11 12 15 13 10 5 6 8 15 16 13 3 15 19 21 21 19 17 12 13 12 12 12 13 12 12 11 10 9 8 6 6 6 6 5 5 5 7 8 7 8 10 11
9 5 7 6 1 13 10 12 10 9 5 6 6 7 9 12 9 15 17 20 19 19 18 18 13 13 13 12 12 12 12 11 11 9 8 7 5 5 5 5 4 3 3 6 8 7 7 8 11
6 7 7 3 11 10 11 10 6 6 6 5 7 6 10 7 10 7 18 19 19 19 18 20 15 14 14 12 11 11 12 11 10 8 7 6 4 3 4 4 4 3 3 6 7 8 8 8 8
8 6 6 8 11 12 12 9 10 2 6 3 4 6 13 4 6 18 19 16 16 16 21 18 13 13 13 12 11 10 11 10 9 7 6 5 3 2 2 4 3 3 3 4 5 6 7 7 7
9 2 1 10 11 14 16 6 3 6 6 7 4 14 9 7 13 18 17 15 16 14 19 17 14 12 12 11 10 10 9 8 8 7 6 4 2 0 2 3 3 2 1 2 3 3 4 5 5
10 2 8 11 13 12 12 7 13 4 4 7 2 8 6 12 16 16 15 15 14 15 16 15 14 12 11 11 10 9 8 8 7 7 5 4 3 2 1 2 2 1 1 1 0 2 3 4 4
6 3 7 3 14 11 10 7 4 11 12 6 1 5 9 17 17 16 13 15 12 14 15 15 13 13 12 13 10 10 9 8 7 6 6 6 7 8 6 4 2 3 3 4 4 4 4 4 5
6 3 9 11 12 12 7 5 8 3 9 7 5 9 19 20 18 17 14 14 9 10 11 13 12 10 7 8 12 9 8 7 9 9 10 9 11 8 12 8 10 9 10 9 9 7 6 6 8
9 10 8 7 7 7 8 6 5 2 4 12 7 16 17 19 17 17 16 14 16 11 10 10 11 14 12 8 11 10 8 10 10 9 8 7 7 5 13 13 6 2 3 9 14 10 7 9 4
1 7 5 9 10 8 6 3 3 7 10 6 13 16 16 15 14 15 15 16 15 16 12 8 6 8 11 4 7 6 7 7 7 2 2 5 8 6 8 6 5 3 5 7 0 7 5 6 5
3 5 5 5 3 5 10 3 7 4 10 9 13 16 15 15 15 17 14 13 14 8 12 13 14 10 3 7 7 5 2 7 3 8 8 4 7 4 11 3 4 6 6 5 6 4 5 6 6
5 7 5 6 4 5 3 6 5 5 6 11 15 16 16 14 14 13 14 15 13 13 9 10 6 5 4 4 3 2 2 5 5 4 7 5 5 5 7 9 6 4 2 3 6 5 2 5 7
4 3 3 4 5 4 6 9 9 10 8 13 14 16 15 14 13 12 12 13 13 16 13 17 13 10 7 5 3 4 3 5 3 4 5 4 7 5 4 3 4 2 5 7 7 5 4 3 4
7 4 7 8 4 6 17 11 15 6 7 10 10 11 13 13 13 13 11 11 11 12 17 17 14 11 9 7 6 6 7 6 4 4 5 6 6 3 7 4 2 5 6 6 1 2 3 6 5
9 8 9 7 8 3 4 12 11 6 5 10 12 10 11 12 14 12 12 12 12 9 12 11 11 13 11 9 7 7 6 5 6 5 7 7 6 3 5 5 1 3 4 1 4 2 2 5 5
6 7 4 10 4 6 9 12 14 2 8 10 12 11 11 12 12 13 14 11 14 13 7 11 12 12 11 7 6 8 4 4 5 4 5 10 9 7 6 6 1 3 3 3 1 3 4 6 6
10 5 0 5 7 8 8 11 10 11 7 7 10 12 12 14 13 15 14 14 12 15 12 10 9 8 7 6 6 6 5 6 5 5 6 9 7 4 5 8 2 5 7 5 5 2 4 5 6
4 5 6 2 7 1 9 10 11 9 9 3 7 10 13 13 15 16 13 15 14 16 15 15 13 12 9 8 7 8 5 5 5 7 6 5 7 6 6 8 5 6 6 4 4 5 8 2 3
8 9 5 3 5 7 10 11 13 10 9 6 4 4 8 13 14 16 18 14 15 16 18 15 14 12 11 10 8 7 5 4 6 2 4 8 7 9 8 7 7 6 6 4 3 5 7 8 4
13 11 9 7 5 7 9 11 12 16 12 8 6 1 6 8 9 17 17 19 12 16 16 17 16 14 12 11 10 8 8 5 4 7 7 9 10 10 9 8 7 8 5 8 8 7 7 9 6
14 9 1 6 12 9 14 7 9 14 15 13 11 8 3 3 10 13 19 17 19 16 15 16 16 15 14 13 10 11 9 9 9 9 9 5 10 10 11 10 8 7 8 6 5 7 6 4 8
12 6 8 6 10 10 13 17 14 13 16 14 14 13 11 7 1 7 12 19 16 15 15 15 15 14 14 14 15 11 12 9 8 8 7 7 8 10 8 6 9 8 8 6 6 7 3 6 7
10 10 15 16 11 13 8 2 22 14 12 13 15 15 15 13 11 2 6 7 14 13 12 13 14 14 14 14 16 13 11 11 7 10 8 8 9 10 12 10 8 7 7 8 7 7 8 7 7
14 17 13 12 8 3 2 15 14 3 10 13 15 15 16 17 16 14 7 5 3 8 11 9 11 13 15 16 16 16 15 12 11 10 7 7 8 7 3 8 8 9 11 11 7 5 7 7 7
11 17 10 6 5 5 6 10 11 12 11 12 14 15 15 17 16 15 14 10 5 4 5 10 10 11 13 13 14 13 15 11 11 11 9 9 9 7 8 9 9 12 9 10 10 9 8 8 7
8 12 9 15 11 11 9 15 18 14 11 11 12 14 15 15 14 16 14 12 11 5 1 5 7 9 11 13 10 12 13 14 13 13 9 11 11 8 8 8 7 11 11 11 10 9 10 9 8
15 5 2 8 9 12 1 14 13 16 13 10 10 11 12 13 14 13 13 13 13 14 16 10 4 6 7 11 12 12 12 12 14 13 12 9 7 8 9 8 12 11 12 12 11 10 10 10 10
19 10 8 13 8 5 6 6 13 11 10 11 10 10 11 11 11 11 12 11 12 10 11 12 11 13 13 13 13 7 11 14 14 14 13 12 14 12 11 10 12 12 13 12 11 11 11 12 13
10 3 18 9 8 11 19 7 11 10 9 10 9 8 8 8 9 9 10 11 11 10 11 11 12 11 8 8 8 8 11 13 10 7 9 11 11 12 13 13 13 13 14 13 12 13 13 14 14
Wind_Direction
203 222 268 259 339 278 72 79 120 109 44 62 58 31 57 75 60 101 128 152 139 138 138 153 145 138 137 141 149 147 142 132 130 124 116 107 100 91 76 68 60 56 72 87 86 87 100 97 104
266 308 243 263 171 294 70 59 51 49 45 68 76 23 100 70 84 135 137 135 147 137 144 145 143 136 135 137 147 147 148 137 132 127 123 116 106 93 76 60 52 58 79 86 102 109 110 115 113
262 264 276 333 344 52 55 82 74 56 53 20 64 45 31 62 101 146 123 144 157 141 154 126 146 138 133 136 143 146 147 141 136 134 132 123 113 87 65 51 45 53 82 97 91 108 120 119 127
262 195 230 242 64 52 54 64 78 107 93 29 30 71 98 36 129 125 142 153 146 144 155 136 149 147 140 140 143 146 143 146 145 145 140 134 127 100 62 27 26 46 101 110 107 114 116 121 130
229 248 303 93 63 58 53 58 45 88 100 359 331 102 80 61 102 128 146 160 136 154 113 136 147 153 152 154 155 156 153 154 154 157 154 155 153 122 62 19 25 72 113 96 110 117 128 126 129
245 298 233 68 59 45 69 38 25 59 49 90 141 88 64 112 134 144 153 155 135 148 127 133 147 154 154 164 164 170 170 166 164 176 176 172 174 148 41 357 350 38 85 116 117 121 136 151 163
283 351 39 54 75 51 45 47 28 43 66 47 11 99 100 138 138 146 160 127 155 126 128 148 162 160 162 167 170 179 180 184 185 192 196 196 208 234 244 296 309 278 315 180 213 186 197 193 196
285 223 103 59 70 59 52 62 41 7 64 81 293 169 154 136 152 150 157 140 167 130 143 158 161 164 175 166 180 187 192 192 203 210 216 223 217 214 212 229 213 14 338 331 303 270 244 230 219
246 313 65 33 53 81 75 9 72 354 87 50 51 40 140 141 156 156 155 151 87 127 167 138 152 158 171 164 164 181 199 210 213 214 220 221 237 187 157 116 64 39 23 350 311 274 257 237 225
297 62 46 45 24 60 75 20 56 179 118 107 103 88 139 151 161 168 161 155 143 155 195 156 142 162 175 203 144 192 185 199 205 199 168 218 299 137 105 95 60 327 331 282 264 253 240 241 216
38 54 41 45 20 40 49 72 61 319 74 78 126 130 149 154 179 175 173 169 168 169 170 155 174 148 178 153 163 178 205 203 166 147 215 297 267 186 149 130 158 181 239 261 164 258 246 259 257
163 80 34 3 347 9 58 10 96 27 58 78 119 139 148 175 176 180 177 172 171 153 173 176 167 145 241 172 175 244 122 230 170 165 185 200 247 150 93 13 174 180 217 242 265 276 262 270 255
338 19 355 18 323 56 113 100 32 109 116 111 121 142 152 189 165 177 176 166 173 156 170 142 133 209 187 216 103 280 274 244 161 170 168 250 246 72 120 193 180 188 112 224 251 277 273 242 237
7 297 41 5 41 87 295 97 243 96 149 130 141 146 162 177 172 158 173 168 172 167 169 154 182 195 201 203 255 148 278 304 183 200 154 235 275 124 272 146 288 111 189 210 196 242 261 298 267
272 141 133 33 66 30 22 39 56 96 152 135 139 151 151 165 166 162 177 164 186 178 172 149 187 182 199 201 206 236 162 221 209 230 137 218 239 140 302 330 337 165 193 185 295 299 252 269 251
253 213 107 58 15 10 215 93 32 121 177 160 141 149 155 164 168 169 172 177 168 176 168 179 161 204 183 197 187 250 233 155 238 209 166 194 225 273 233 256 340 144 295 211 173 179 220 261 272
199 83 43 123 49 318 26 23 5 193 177 167 157 170 170 170 173 172 171 188 163 164 211 185 172 199 188 197 221 228 244 228 231 210 219 165 228 212 246 290 219 348 285 282 257 132 181 262 213
52 355 262 28 56 43 36 58 32 357 167 179 170 176 179 176 184 168 182 181 178 151 173 205 183 195 197 209 223 249 249 223 232 216 214 166 204 214 230 258 280 304 288 80 316 40 296 304 313
340 317 284 41 100 169 67 61 52 44 21 127 177 195 189 195 172 167 193 180 184 164 168 198 193 178 193 190 215 226 188 236 211 217 215 209 232 227 214 262 213 216 258 329 323 277 222 234 225
265 261 251 114 91 265 109 89 85 68 61 56 344 296 217 195 188 177 176 203 194 186 176 183 205 190 193 191 227 234 232 165 224 292 162 213 221 220 240 237 280 264 300 220 237 291 307 267 10
234 255 25 333 321 240 172 116 108 94 76 62 69 256 260 276 222 179 189 187 202 195 193 186 194 194 200 228 193 216 242 239 185 213 211 200 213 228 222 245 246 310 295 270 199 219 252 303 244
280 57 267 255 267 218 223 79 99 90 79 61 45 43 61 226 217 250 178 195 194 203 197 197 195 198 198 212 220 208 222 216 221 206 225 205 226 222 230 220 235 235 277 300 270 222 259 304 295
284 13 297 267 264 274 215 170 119 81 69 59 49 41 38 41 220 226 217 181 195 192 196 201 196 203 215 195 229 195 226 208 235 231 197 206 185 217 233 229 222 233 236 238 264 296 284 307 268
274 274 255 235 229 235 205 120 337 45 45 60 56 47 43 33 62 111 289 205 170 189 197 195 193 199 207 218 209 236 214 226 220 240 225 223 212 215 206 222 211 226 264 252 256 234 259 248 297
230 250 248 226 190 178 294 88 183 120 69 55 58 50 44 54 35 48 71 52 265 195 179 208 196 207 215 217 221 220 233 221 226 253 249 239 229 246 246 187 234 201 215 247 264 277 285 260 249
209 265 278 242 246 87 192 134 119 115 99 77 64 61 50 47 53 53 26 41 44 334 225 191 209 216 220 221 221 227 231 230 232 238 231 236 251 252 214 198 206 230 224 212 227 225 230 248 263
231 249 353 310 205 230 57 129 141 124 102 85 77 65 58 53 45 42 46 33 20 38 345 227 216 208 223 226 215 222 227 234 245 242 205 225 234 228 218 207 236 201 224 234 225 226 228 234 238
281 344 24 359 333 274 6 180 128 152 123 105 81 69 61 56 50 48 40 32 24 19 9 2 328 260 229 240 225 217 228 230 238 239 257 256 230 229 249 234 230 234 232 229 232 225 229 218 228
269 238 345 195 237 246 170 69 15 109 124 112 94 68 59 46 44 43 37 38 34 23 25 24 31 30 19 11 336 289 242 225 226 239 239 236 246 249 248 237 241 246 238 233 230 234 226 225 227
294 162 196 294 80 329 288 110 148 127 119 108 102 76 52 56 33 33 40 23 22 35 18 8 2 346 4 336 347 348 351 332 309 273 256 261 254 252 254 241 235 235 241 236 229 227 233 228 225